Change the Weather History Date:

Monday, August 19, 2013

  Actual Average Record
Temperature  
Mean Temperature 84 °F 85 °F  
Max Temperature 89 °F 91 °F 96 °F (1999)
Min Temperature 79 °F 80 °F 71 °F (1967)
Degree Days  
Heating Degree Days 0 0  
Month to date heating degree days 0 0  
Since 1 June heating degree days 0 0  
Since 1 July heating degree days 0 0  
Cooling Degree Days 19 20  
Month to date cooling degree days 407 380  
Year to date cooling degree days 2181 2154  
Since 1 June cooling degree days 1630 1519  
Growing Degree Days 34 (Base 50)    
Moisture  
Dew Point 73 °F    
Average Humidity 74    
Maximum Humidity 91    
Minimum Humidity 57    
Precipitation  
Precipitation 0.00 in 0.16 in 2.99 in (1958)
Month to date precipitation 1.25 2.00  
Year to date precipitation 21.63 28.79  
Snow  
Snow 0.00 in - - ()
Month to date snowfall 0.0  
Since 1 June snowfall 0.0  
Since 1 July snowfall 0.0  
Snow Depth 0.00 in    
Sea Level Pressure  
Sea Level Pressure 30.00 in    
Wind  
Wind Speed 8 mph (East)    
Max Wind Speed 15 mph    
Max Gust Speed 24 mph    
Visibility 10 miles    
Events      
T = Trace of Precipitation, MM = Missing Value Source: NWS Daily Summary

Daily Weather History Graph

Daily Weather History Graph

Search for Another Location

Airport or City:

Trip Planner

Search our weather history database for the weather conditions in past years. The results will help you decide how hot, cold, wet, or windy it might be!

Date:

Astronomy

Aug. 19, 2013 Rise Set
Actual Time 6:50 AM CDT 7:55 PM CDT
Civil Twilight 6:25 AM CDT 8:19 PM CDT
Nautical Twilight 5:56 AM CDT 8:49 PM CDT
Astronomical Twilight 5:26 AM CDT 9:19 PM CDT
Moon 6:47 PM CDT (8/19) 5:13 AM CDT (8/19)
Length of Visible Light 13h 54m
Length of Day
13h 05m
Waxing Gibbous, 97% of the Moon is Illuminated
Aug 19
Waxing Gibbous
Aug 20
Full
Aug 28
Last Quarter
Sep 5
New
Sep 12
First Quarter

Hourly Weather History & Observations

Time (CDT) Temp. Heat Index Dew Point Humidity Pressure Visibility Wind Dir Wind Speed Gust Speed Precip Events Conditions
12:52 AM 79.0 °F - 71.1 °F 77% 29.99 in 10.0 mi Calm Calm - N/A   Clear
1:52 AM 80.1 °F 83.8 °F 72.0 °F 76% 29.99 in 10.0 mi Calm Calm - N/A   Clear
2:52 AM 81.0 °F 84.9 °F 71.1 °F 72% 29.99 in 10.0 mi Calm Calm - N/A   Clear
3:52 AM 79.0 °F - 71.1 °F 77% 29.99 in 10.0 mi ENE 3.5 mph - N/A   Clear
4:52 AM 80.1 °F 83.8 °F 72.0 °F 76% 30.00 in 10.0 mi ENE 4.6 mph - N/A   Clear
5:52 AM 80.1 °F 83.8 °F 72.0 °F 76% 29.99 in 10.0 mi ENE 4.6 mph - N/A   Partly Cloudy
6:52 AM 79.0 °F - 75.0 °F 88% 30.00 in 10.0 mi NNE 8.1 mph - N/A   Partly Cloudy
7:52 AM 80.1 °F 85.1 °F 75.0 °F 85% 30.01 in 10.0 mi NE 9.2 mph - N/A   Clear
8:52 AM 84.0 °F 91.9 °F 75.0 °F 74% 30.02 in 10.0 mi NNE 12.7 mph - N/A   Clear
9:52 AM 86.0 °F 93.8 °F 73.9 °F 67% 30.04 in 10.0 mi NE 11.5 mph - N/A   Partly Cloudy
10:52 AM 87.1 °F 95.4 °F 73.9 °F 65% 30.04 in 10.0 mi East 10.4 mph - N/A   Scattered Clouds
11:52 AM 88.0 °F 93.8 °F 71.1 °F 57% 30.04 in 10.0 mi East 10.4 mph - N/A   Clear
12:52 PM 87.1 °F 92.8 °F 71.1 °F 59% 30.03 in 10.0 mi East 9.2 mph 24.2 mph N/A   Clear
1:52 PM 88.0 °F 93.8 °F 71.1 °F 57% 30.02 in 10.0 mi East 10.4 mph 16.1 mph N/A   Clear
2:52 PM 88.0 °F 94.7 °F 72.0 °F 59% 30.00 in 10.0 mi ESE 11.5 mph - N/A   Clear
3:52 PM 88.0 °F 94.7 °F 72.0 °F 59% 29.98 in 10.0 mi ESE 11.5 mph - N/A   Clear
4:52 PM 87.1 °F 94.5 °F 73.0 °F 63% 29.97 in 10.0 mi East 12.7 mph - N/A   Clear
5:52 PM 87.1 °F 93.6 °F 72.0 °F 61% 29.96 in 10.0 mi SE 9.2 mph - N/A   Clear
6:52 PM 86.0 °F 90.7 °F 70.0 °F 59% 29.95 in 10.0 mi ESE 9.2 mph - N/A   Clear
7:52 PM 82.9 °F 88.0 °F 72.0 °F 69% 29.96 in 10.0 mi ESE 6.9 mph - N/A   Clear
8:52 PM 82.0 °F 87.4 °F 73.0 °F 74% 29.96 in 10.0 mi SE 10.4 mph - N/A   Clear
9:52 PM 82.0 °F 87.9 °F 73.9 °F 76% 29.98 in 10.0 mi SE 8.1 mph - N/A   Clear
10:52 PM 82.0 °F 87.9 °F 73.9 °F 76% 29.99 in 10.0 mi SSE 11.5 mph - N/A   Clear
11:52 PM 82.0 °F 87.9 °F 73.9 °F 76% 29.98 in 10.0 mi SE 8.1 mph - N/A   Partly Cloudy